Voltar ao catálogo

STARLINK-11078

AtivoComunicaçõesVLEO
NORAD 58710·PAYLOAD·🇺🇸 United States

Lançado Jan 3, 2024 de Vandenberg Space Force Base

Loading…

Próximas Passagens (próximas 24 horas)

TLE

AtualizadoSource: CelesTrak SupGP

Época: Sep 14, 2026, 22:22 UTC

1 58710C 24002F   26257.93243056  .00092472  00000+0  76142-3 0  2576
2 58710  53.1571  60.9516 0001134  70.0530 247.2459 15.69672667    15

Acompanhe STARLINK-11078 em tempo real com AllMySat

Download on the App Store